Houlton, ME

4:08 PM EDT on July 23, 2016 (GMT -0400)
Houlton International

Weather History for KHUL - April, 2013

Change the Weather History Date:

Friday, April 12, 2013

  Actual Average Record
Temperature  
Mean Temperature 29 °F 38 °F  
Max Temperature 42 °F 48 °F 84 °F (1945)
Min Temperature 15 °F 27 °F 11 °F (2007)
Degree Days  
Heating Degree Days 36 28  
Month to date heating degree days 402 361  
Since 1 July heating degree days 7582 8157  
Cooling Degree Days 0 0  
Month to date cooling degree days 0 0  
Year to date cooling degree days 0 0  
Moisture  
Dew Point 22 °F    
Average Humidity 57    
Maximum Humidity 85    
Minimum Humidity 29    
Precipitation  
Precipitation 0.16 in 0.13 in 0.95 in (2016)
Month to date precipitation 0.86 1.52  
Year to date precipitation 5.03 8.97  
Sea Level Pressure  
Sea Level Pressure 30.14 in    
Wind  
Wind Speed 4 mph (ESE)    
Max Wind Speed 15 mph    
Max Gust Speed 21 mph    
Visibility 6 miles    
Events Fog , Snow    
T = Trace of Precipitation, MM = Missing Value Source: NWS Daily Summary

Daily Weather History Graph

Daily Weather History Graph

Search for Another Location

Airport or City:

Trip Planner

Search our weather history database for the weather conditions in past years. The results will help you decide how hot, cold, wet, or windy it might be!

Date:

Astronomy

Apr. 12, 2013 Rise Set
Actual Time 5:49 AM EDT 7:14 PM EDT
Civil Twilight 5:18 AM EDT 7:45 PM EDT
Nautical Twilight 4:41 AM EDT 8:23 PM EDT
Astronomical Twilight 4:01 AM EDT 9:04 PM EDT
Moon 6:50 AM EDT (4/12) 9:50 PM EDT (4/12)
Length of Visible Light 14h 27m
Length of Day
13h 24m
Waxing Crescent, 5% of the Moon is Illuminated
Apr 12
Waxing Crescent
Apr 18
First Quarter
Apr 25
Full
May 2
Last Quarter
May 9
New

Hourly Weather History & Observations

Time (EDT) Temp. Windchill Dew Point Humidity Pressure Visibility Wind Dir Wind Speed Gust Speed Precip Events Conditions
12:53 AM 23.0 °F - 12.9 °F 65% 30.19 in 10.0 mi Calm Calm - N/A   Clear
1:53 AM 24.1 °F - 12.9 °F 62% 30.21 in 10.0 mi Calm Calm - N/A   Clear
2:53 AM 23.0 °F - 12.9 °F 65% 30.21 in 10.0 mi Calm Calm - N/A   Clear
3:53 AM 21.0 °F - 12.9 °F 71% 30.23 in 10.0 mi Calm Calm - N/A   Clear
4:53 AM 18.0 °F - 12.9 °F 81% 30.22 in 10.0 mi Calm Calm - N/A   Clear
5:53 AM 18.0 °F - 14.0 °F 84% 30.24 in 10.0 mi Calm Calm - N/A   Clear
6:53 AM 24.1 °F - 16.0 °F 71% 30.26 in 10.0 mi Calm Calm - N/A   Clear
7:53 AM 30.0 °F 25.2 °F 16.0 °F 56% 30.27 in 10.0 mi North 4.6 mph - N/A   Clear
8:53 AM 33.1 °F 26.9 °F 17.1 °F 52% 30.25 in 10.0 mi NNW 6.9 mph - N/A   Clear
9:53 AM 37.0 °F 31.0 °F 16.0 °F 42% 30.22 in 10.0 mi North 8.1 mph - N/A   Clear
10:53 AM 39.0 °F 34.0 °F 16.0 °F 39% 30.19 in 10.0 mi North 6.9 mph - N/A   Clear
11:53 AM 39.9 °F 34.5 °F 14.0 °F 35% 30.17 in 10.0 mi NNE 8.1 mph - N/A   Clear
12:53 PM 42.1 °F 37.7 °F 15.1 °F 34% 30.17 in 10.0 mi ENE 6.9 mph - N/A   Overcast
1:53 PM 41.0 °F 36.4 °F 15.1 °F 35% 30.13 in 10.0 mi ENE 6.9 mph - N/A   Scattered Clouds
2:53 PM 42.1 °F 37.1 °F 12.0 °F 29% 30.12 in 10.0 mi ESE 8.1 mph - N/A   Overcast
3:53 PM 41.0 °F 39.0 °F 12.9 °F 32% 30.12 in 10.0 mi South 3.5 mph - N/A   Overcast
4:53 PM 39.0 °F 32.3 °F 17.1 °F 41% 30.10 in 10.0 mi SSE 10.4 mph - N/A   Overcast
5:31 PM 35.6 °F 29.2 °F 24.8 °F 65% 30.12 in 2.5 mi SSE 8.1 mph - 0.00 in Snow Light Snow
5:34 PM 35.6 °F 28.0 °F 26.6 °F 70% 30.13 in 1.2 mi SE 10.4 mph 17.3 mph 0.00 in Snow Light Snow
5:43 PM 33.8 °F 27.7 °F 28.4 °F 81% 30.13 in 0.5 mi SE 6.9 mph - 0.00 in Snow Snow
5:53 PM 33.1 °F 26.1 °F 28.9 °F 85% 30.16 in 0.2 mi SSE 8.1 mph - 0.02 in Fog , Snow Snow
6:01 PM 33.8 °F 30.8 °F 28.4 °F 81% 30.14 in 0.2 mi Variable 3.5 mph - 0.02 in Fog , Snow Snow
6:53 PM 32.0 °F 28.7 °F 28.9 °F 88% 30.15 in 0.8 mi SE 3.5 mph - 0.10 in Snow Light Snow
6:57 PM 32.0 °F 27.5 °F 28.4 °F 87% 30.12 in 1.0 mi SE 4.6 mph - 0.00 in Snow Light Snow
7:08 PM 32.0 °F 27.5 °F 28.4 °F 87% 30.12 in 0.8 mi SE 4.6 mph - 0.01 in Snow Light Snow
7:17 PM 32.0 °F 27.5 °F 28.4 °F 87% 30.11 in 1.0 mi SE 4.6 mph - 0.01 in Snow Light Snow
7:23 PM 32.0 °F 27.5 °F 28.4 °F 87% 30.11 in 1.0 mi SSE 4.6 mph - 0.02 in Snow Light Snow
7:43 PM 32.0 °F 28.7 °F 28.4 °F 87% 30.09 in 1.5 mi SSE 3.5 mph - 0.03 in Snow Light Snow
7:53 PM 32.0 °F 28.7 °F 28.9 °F 88% 30.11 in 3.0 mi SSE 3.5 mph - 0.03 in Snow Light Snow
8:07 PM 32.0 °F - 28.4 °F 87% 30.08 in 3.0 mi Calm Calm - 0.00 in Snow Light Snow
8:16 PM 32.0 °F 28.7 °F 28.4 °F 87% 30.08 in 5.0 mi ESE 3.5 mph - 0.00 in Snow Light Snow
8:53 PM 32.0 °F - 28.9 °F 88% 30.10 in 8.0 mi Calm Calm - 0.01 in Snow Light Snow
9:18 PM 32.0 °F 28.7 °F 28.4 °F 87% 30.06 in 4.0 mi East 3.5 mph - 0.00 in Snow Light Snow
9:31 PM 32.0 °F 28.7 °F 28.4 °F 87% 30.05 in 3.0 mi East 3.5 mph - 0.00 in Snow Light Snow
9:53 PM 32.0 °F 28.7 °F 28.9 °F 88% 30.06 in 5.0 mi Variable 3.5 mph - 0.00 in Snow Light Snow
10:53 PM 32.0 °F 28.7 °F 28.9 °F 88% 30.03 in 4.0 mi East 3.5 mph - 0.00 in Snow Light Snow
11:53 PM 32.0 °F 28.7 °F 28.0 °F 85% 30.01 in 4.0 mi East 3.5 mph - 0.00 in Snow Light Snow